Weather in Deryabkino

Russia / Voronezh Oblast     51°31′45″N   40°56′27″E
temp.,
°C
wind,
m/s
gust,
m/s
humid.,
%
clouds,
%
prec.,
mm/h
press.,
hPa
HPBL,
m
9 december, thu
thu900:00+4ese4890100 0.0 1015313
03:00+2ese379433 0.0 1015147
06:00+2ese489594 0.0 1016204
09:00+1ese3697100 0.0 1017161
12:00+3ese358488 0.0 1018264
15:00+3ene238298 0.0 1018193
18:00+1e349020 0.0 102084
21:00+1ene3489100 0.0 1021112
10 december, fri
fri1000:00+2ene3586100 0.0 1023208
03:00+2ne2586100 0.0 1024202
06:00+2ne4786100 0.0 1025371
09:00+1ene488769 0.0 1027393
12:00+2ne457846 0.0 1028503
15:00+2ne347421 0.0 1028572
18:000ene48865 0.0 1029252
21:00−1ene48885 0.0 1030312
11 december, sat
sat1100:00−2ene378629 0.0 1030303
03:00−1ene358216 0.0 1030155
06:00−2ene378538 0.0 1031234
09:00−3ene48765 0.0 1031285
12:000e56605 0.0 1031448
15:000e47645 0.0 1031430
18:00−2e497276 0.0 1033254
21:00−2ese4106960 0.0 1033325
12 december, sun
sun1200:00−2ese4958100 0.0 1034320
03:00−3ese485586 0.0 1035303
06:00−3ese595959 0.0 1035287
09:00−4ese510637 0.0 1036324
12:00−1ese69515 0.0 1036386
15:00−1ese59502 0.0 1035417
18:00−2ese612570 0.0 1036335
21:00−3ese61358100 0.0 1036389
13 december, mon
mon1300:00−4ese61360100 0.0 1035380
03:00−4ese61359100 0.0 1035364
06:00−4ese61454100 0.0 1034377
09:00−4ese6154790 0.0 1034412
12:00−2se71538100 0.0 1033486
15:00−1ese61437100 0.0 1032489
18:00−2ese71540100 0.0 1032461
21:00−3se71542100 0.0 1031447